Terminal Aerodrome Forecast
Issued by NWS

Home | Current Version | Previous Version | Text Only | Print | Product List | Glossary On
Versions: 1 2 3 4 5 6 7 8 9 10 11 12 13 14
000
FTUS42 TJSJ 040544
TAFJPS
TAF
TJPS 040544Z 0406/0506 VRB05KT P6SM FEW030
     FM041300 10015KT P6SM SCT250
     FM041500 14017KT P6SM FEW250
     FM042330 09008KT P6SM FEW030 SCT060
      AMD NOT SKED 0411/0503=

USA.gov is the U.S. government's official web portal to all federal, state and local government web resources and services.